Flag for India Weather past 2 weeks in Jalpaiguri, West Bengal, India

Now
79 °F

Light rain. Mostly cloudy.


Feels Like: 83 °F
Forecast: 78 / 87 °F
Wind: 3 mph from Northeast

Location: Varanasi / Babatpur

Current Time: Jul 8, 2015 at 12:03:17 AM

Latest Report: Jul 7, 2015 at 10:00 PM


Visibility: 2 mi

Pressure: 29.50 "Hg

Humidity: 100%

Dew point: 79 °F

Location of JalpaiguriLocation

Historic Weather in Jalpaiguri — Graph

°F

Jalpaiguri temperature yesterday

Maximum temperature yesterday: 91 °F (at 12:00 PM)
Minimum temperature yesterday: 79 °F (at 4:00 PM)
Average temperature yesterday: 83 °F

Past Weeks' High & Low Weather Summary

 TemperatureHumidityPressure
High104 °F (Jun 24, 2:00 PM)100% (Jun 28, 1:00 PM)29.68 "Hg (Jun 28, 1:00 PM)
Low75 °F (Jun 29, 12:00 AM)38% (Jun 24, 2:00 PM)29.30 "Hg (Jun 23, 6:00 AM)
Average88 °F70%29.51 "Hg
* Reported Jun 22 10:00 PM — Jul 7 10:00 PM, Jalpaiguri, Weather by CustomWeather, © 2015

Note: Actual official high and low records may vary slightly from our data, if they occured in-between our weather recording intervals... More about our weather records

Advertising

Jalpaiguri weather history for previous 24 hours

 ConditionsComfort  
Time TempWeatherWind HumidityBarometerVisibility
10:00 PM
Tue, Jul 7
79 °FLight rain. Mostly cloudy.3 mph100%29.50 "Hg2 mi
9:00 PM79 °FLight rain. Mostly cloudy.No wind100%29.47 "Hg2 mi
8:00 PM79 °FLight rain. Mostly cloudy.3 mph100%29.47 "Hg2 mi
7:00 PM79 °FLight rain. Broken clouds.3 mph100%29.47 "Hg2 mi
6:00 PM81 °FLight rain. Broken clouds.3 mph100%29.45 "Hg2 mi
5:00 PM81 °FLight rain. Broken clouds.7 mph94%29.45 "Hg2 mi
4:00 PM79 °FBroken clouds.2 mph100%29.45 "Hg2 mi
12:00 PM91 °FBroken clouds.8 mph63%29.50 "Hg4 mi
11:00 AM90 °FBroken clouds.7 mph71%29.53 "Hg4 mi
10:00 AM90 °FBroken clouds.6 mph71%29.53 "Hg3 mi
9:00 AM86 °FBroken clouds.7 mph84%29.53 "Hg2 mi
8:00 AM84 °FBroken clouds.6 mph79%29.50 "Hg2 mi
7:00 AM82 °FBroken clouds.3 mph89%29.50 "Hg2 mi
6:00 AM81 °FBroken clouds.3 mph94%29.50 "Hg2 mi
5:00 AM81 °FPartly cloudy.2 mph94%29.47 "Hg2 mi
4:00 AM81 °FPassing clouds.3 mph94%29.47 "Hg2 mi
12:00 AM82 °FPassing clouds.No wind94%29.53 "Hg2 mi
Weather by CustomWeather, © 2015

See weather overviewHow to use our weather pages